ASBM-1 (60422 NORAD) Tracking and Keplerian Element Data

This shows tracking and keplerian element data for the satellite.

Feedback or suggestion? Click here.




ElementValue
Catalog60422
NameASBM-1
Epoch Orbit235
Epoch Day283.24831932
Epoch Year2024
RAAN68.7102
Inclination62.3112
Eccentricity0.5344152
Argument of Perigee267.6574
Mean Anonmoly33.3433
Mean Motion1.50423006
Decay Rate3.6E-07
L11 60422U 24143A 24283.24831932 .00000036 00000+0 00000+0 0 9996
L22 60422 62.3112 68.7102 5344152 267.6574 33.3433 1.50423006 2356



Live tracking and technical data element details for ASBM-1 (NORAD 60422). ASBM-1 can be tracked NOW for your location showing map with azimuth and elevation plus other details from your city location.







IsCatalogInMostPopularTable: catalog: 60422, numindb: 4
Update: records affected: 1



GetName: 60422 ASBM-1

Hit Count: updated at: Wed, 04 Dec 2024 18:11:56 GMT